Preview of NWS' New Version of Forecast
This preview is not operational and should not be used for support decisions.

Regional Weather Roundup (RWR)

Issued by National Weather Service (NWS)

                            
000
ASUS45 KCYS 241410
RWRWY 

WYOMING REGIONAL WEATHER ROUNDUP
NATIONAL WEATHER SERVICE CHEYENNE WY
800 AM MDT MON JUN 24 2019

NOTE:  "FAIR" INDICATES FEW OR NO CLOUDS BELOW 12,000 FEET
WITH NO SIGNIFICANT WEATHER AND/OR OBSTRUCTIONS TO VISIBILITY.

WYZ001-241500-
YELLOWSTONE NATIONAL PARK
  
CITY           SKY/WX    TMP DP  RH WIND       PRES   REMARKS
LK YELLOWSTONE   N/A     46  32  58 MISG      30.06R                  
W YELLOWSTONE  NOT AVBL                                               

$$
WYZ002>013-054>058-071-098>099-241500-
NORTHERN WYOMING
  
CITY           SKY/WX    TMP DP  RH WIND       PRES   REMARKS
JACKSON        FAIR      53  32  44 SW13      30.03S                  
CODY           CLOUDY    56  44  64 N6        29.94R                  
GREYBULL       FAIR      64  43  46 NW12      29.85S                  
WORLAND        FAIR      60  44  55 CALM      29.87S                  
SHERIDAN       FAIR      57  48  72 NW9       29.89S                  
BUFFALO        FAIR      56  46  69 N22G28    29.91R                  
GILLETTE       FAIR      58  49  72 W12       29.87R                  
HULETT         FAIR      55  46  71 SW6       29.87                   
NEWCASTLE      PTSUNNY   54  46  76 W3        29.87                   

$$
WYZ014>020-022>026-101>103-241500-
CENTRAL WYOMING
  
CITY           SKY/WX    TMP DP  RH WIND       PRES   REMARKS
BIG PINEY      FAIR      49  37  63 VRB3      30.08R                  
PINEDALE       FAIR      46  32  57 CALM      30.08                   
DUBOIS         FAIR      50  30  46 N12       30.00                   
LANDER         FAIR      59  37  44 E5        29.92S                  
RIVERTON       FAIR      63  35  35 W15       29.93S                  
CASPER         FAIR      60  40  47 SW8       29.91S                  
DOUGLAS        FAIR      57  48  72 S3        29.90F                  

$$
WYZ021-027>030-104>119-241500-
SOUTHERN WYOMING
  
CITY           SKY/WX    TMP DP  RH WIND       PRES   REMARKS
EVANSTON       FAIR      51  32  48 SW8       30.13S                  
KEMMERER       FAIR      48  32  53 W6        30.12                   
ROCK SPRINGS   FAIR      53  31  42 SW12      30.10R                  
DIXON          CLOUDY    55  36  49 S15G21    30.12S                  
RAWLINS        FAIR      57  35  43 W18G31    30.04R                  
SARATOGA       FAIR      55  36  47 SW14      30.08R                  
LARAMIE        FAIR      56  35  45 W14       30.04S                  
CHEYENNE       FAIR      59  39  47 W16       30.01S                  
TORRINGTON     FAIR      53  47  79 SE3       29.88F                  
PINE BLUFFS    PTSUNNY   52  46  82 S6        29.97F                  

$$
  

000
ASUS45 KCYS 241410
RWRWY 

WYOMING REGIONAL WEATHER ROUNDUP
NATIONAL WEATHER SERVICE CHEYENNE WY
800 AM MDT MON JUN 24 2019

NOTE:  "FAIR" INDICATES FEW OR NO CLOUDS BELOW 12,000 FEET
WITH NO SIGNIFICANT WEATHER AND/OR OBSTRUCTIONS TO VISIBILITY.

WYZ001-241500-
...YELLOWSTONE NATIONAL PARK...
  
CITY           SKY/WX    TMP DP  RH WIND       PRES   REMARKS
LK YELLOWSTONE   N/A     46  32  58 MISG      30.06R                  
W YELLOWSTONE  NOT AVBL                                               

$$
WYZ002>013-054>058-071-098>099-241500-
...NORTHERN WYOMING...
  
CITY           SKY/WX    TMP DP  RH WIND       PRES   REMARKS
JACKSON        MOSUNNY   53  32  44 SW13      30.03S                  
CODY           CLOUDY    56  44  64 N6        29.94R                  
GREYBULL       MOSUNNY   64  43  46 NW12      29.85S                  
WORLAND        SUNNY     60  44  55 CALM      29.87S                  
SHERIDAN       PTSUNNY   57  48  72 NW9       29.89S                  
BUFFALO        SUNNY     56  46  69 N22G28    29.91R                  
GILLETTE       MOSUNNY   58  49  72 W12       29.87R                  
HULETT         FAIR      55  46  71 SW6       29.87R                  
NEWCASTLE      PTSUNNY   54  46  76 W3        29.87S                  

$$
WYZ014>020-022>026-101>103-241500-
...CENTRAL WYOMING...
  
CITY           SKY/WX    TMP DP  RH WIND       PRES   REMARKS
BIG PINEY      PTSUNNY   49  37  63 VRB3      30.08R                  
PINEDALE       MOSUNNY   46  32  57 CALM      30.08F                  
DUBOIS         FAIR      50  30  46 N12       30.00S                  
LANDER         PTSUNNY   59  37  44 E5        29.92S                  
RIVERTON       PTSUNNY   63  35  35 W15       29.93S                  
CASPER         SUNNY     60  40  47 SW8       29.91S                  
DOUGLAS        SUNNY     57  48  72 S3        29.90F                  

$$
WYZ021-027>030-104>119-241500-
...SOUTHERN WYOMING...
  
CITY           SKY/WX    TMP DP  RH WIND       PRES   REMARKS
EVANSTON       SUNNY     51  32  48 SW8       30.13S                  
KEMMERER       SUNNY     50  32  50 W8        30.12S                  
FORT BRIDGER   NOT AVBL                                               
ROCK SPRINGS   MOSUNNY   53  31  42 SW12      30.10R                  
DIXON          CLOUDY    55  36  49 S15G21    30.12S                  
RAWLINS        SUNNY     57  35  43 W18G31    30.04R                  
SARATOGA       FAIR      55  36  47 SW14      30.08R                  
LARAMIE        SUNNY     56  35  45 W14       30.04S                  
CHEYENNE       SUNNY     59  39  47 W16       30.01S                  
TORRINGTON     MOSUNNY   53  47  79 SE3       29.88F                  
PINE BLUFFS    PTSUNNY   52  46  82 S6        29.97F                  

$$